User: anonymous   Login
Location: Oshawa
(43.9000°N, 78.8670°W)
Time: 09:30:47
(UTC-05:00)
Language:

Iridium 54 - Orbit

View from above orbital plane
View from above orbital plane
View from above satellite
View from above satellite

Ground track
Ground track

The orbit data is extracted from the following two-line orbital elements,

1 25171U 98010C   15063.54009518  .00000651  00000-0  22543-3 0  9992
2 25171 086.4008 339.6777 0002180 081.8086 278.3357 14.34219919892151
Epoch (UTC): 04 March 2015 12:57:44
Eccentricity: 0.0002180
inclination: 86.4008°
perigee height: 776 km
apogee height: 779 km
right ascension of ascending node: 339.6777°
argument of perigee: 81.8086°
revolutions per day: 14.34219919
mean anomaly at epoch: 278.3357°
orbit number at epoch: 89215

The dashed part of the orbit path shows where the satellite is in the earth's shadow,  

DLR